Simultaneous Nadir Overpasses (SNOs) Predictions

Prediction of SNOs between GOES-17 and METOP-B Satellite Orbit:

Table of predicted SNOs for the next 14.0 days since TLE Epoch: 6/24/2023
Index Date Time (GOES-17) GOES-17 Lat,Lon METOP-B Lat,Lon Distance(km) Time Diff (sec)
1 06/24/2023 04:41:01 -0.01,-104.70 -0.63,-107.46 314.39 80
2 06/25/2023 04:17:41 -0.01,-104.70 0.52,-102.47 254.97 80
3 06/26/2023 16:36:32 0.01,-104.74 0.53,-107.03 260.64 80
4 06/27/2023 16:18:32 0.01,-104.75 -0.62,-102.04 309.00 80
5 06/29/2023 04:37:31 -0.01,-104.72 -0.41,-106.64 217.88 80
6 06/30/2023 04:14:11 -0.01,-104.72 0.68,-101.63 351.20 80
7 07/01/2023 16:33:01 0.00,-104.74 0.35,-106.19 165.42 80
8 07/02/2023 16:15:02 0.00,-104.74 -0.81,-101.21 403.68 80
9 07/04/2023 04:34:00 -0.00,-104.71 -0.26,-105.79 123.59 80
10 07/05/2023 04:10:41 -0.00,-104.70 0.90,-100.80 445.20 80
11 07/06/2023 16:29:31 0.00,-104.73 0.13,-105.36 71.77 80
12 07/07/2023 16:11:30 -0.00,-104.73 -0.98,-100.36 497.50 80
